Location: Freemans Gardens
(41.6414°N, 83.6077°W)
Time: 22:01:40
(UTC+00:00)

USA 307 - Pass Details

Date: 29 October 2020
Orbit: 569 x 579 km, 54.0° (Epoch: 23 November)

Event Time Altitude Azimuth Distance (km) Brightness Sun altitude
Rises 23:26:15 0° 312° (NW) 2,789 7.0 -10.7°
Reaches altitude 10° 23:28:42 10° 322° (NW) 1,886 5.9 -11.1°
Maximum altitude 23:32:37 34° 28° (NNE) 963 3.7 -11.8°
Enters shadow 23:35:05 19° 82° (E) 1,405 4.2 -12.3°
